Flag for Germany Weather past 2 weeks in Tuttlingen, Baden-Württemberg, Germany

Now
55 °F

Overcast.


Feels Like: 52 °F
Forecast: 33 / 37 °F
Wind: 13 mph from West

Location: Konstanz

Current Time: Mar 31, 2015 at 8:38:51 AM

Latest Report: Mar 31, 2015 at 8:00 AM


Visibility: 47 mi

Pressure: 29.75 "Hg

Humidity: 71%

Dew point: 46 °F

Location of TuttlingenLocation

Historic Weather in Tuttlingen — Graph

°F

Tuttlingen temperature yesterday

Maximum temperature yesterday: 53 °F (at 5:00 PM)
Minimum temperature yesterday: 46 °F (at 10:00 AM)
Average temperature yesterday: 49 °F

Past Weeks' High & Low Weather Summary

 TemperatureHumidityPressure
High64 °F (Mar 18, 4:00 PM)100% (Mar 24, 6:00 AM)30.31 "Hg (Mar 24, 6:00 AM)
Low33 °F (Mar 24, 7:00 AM)31% (Mar 20, 5:00 PM)29.56 "Hg (Mar 25, 2:00 PM)
Average47 °F72%30.02 "Hg
* Reported Mar 16 6:00 AM — Mar 31 7:00 AM, Tuttlingen, Weather by CustomWeather, © 2015

Note: Actual official high and low records may vary slightly from our data, if they occured in-between our weather recording intervals... More about our weather records

Advertising

Tuttlingen weather history for previous 24 hours

 ConditionsComfort  
Time TempWeatherWind HumidityBarometerVisibility
7:00 AM
Tue, Mar 31
55 °FLight rain. Overcast.13 mph72%29.74 "Hg25 mi
6:00 AM52 °FLight rain. Overcast.10 mph81%29.75 "Hg19 mi
5:00 AM51 °FCool.6 mph80%29.80 "Hg43 mi
4:00 AM49 °FLight rain. Overcast.5 mph85%29.86 "Hg31 mi
3:00 AM47 °FCool.7 mph84%29.91 "Hg43 mi
2:00 AM47 °FLight rain. Overcast.6 mph77%29.94 "Hg22 mi
1:00 AM48 °FCool.5 mph66%29.96 "Hg43 mi
12:00 AM48 °FCool.5 mph68%30.00 "Hg43 mi
11:00 PM
Mon, Mar 30
48 °FCool.5 mph65%30.00 "Hg43 mi
10:00 PM49 °FCool.6 mph57%30.00 "Hg43 mi
9:00 PM49 °FOvercast.6 mph58%29.98 "Hg25 mi
8:00 PM50 °FOvercast.6 mph59%29.93 "Hg25 mi
7:00 PM51 °FOvercast.5 mph60%29.91 "Hg25 mi
6:00 PM51 °FOvercast.7 mph54%29.88 "Hg19 mi
5:00 PM53 °FOvercast.8 mph51%29.85 "Hg28 mi
4:00 PM52 °FOvercast.8 mph57%29.84 "Hg25 mi
3:00 PM50 °FLow clouds.7 mph80%29.82 "Hg19 mi
2:00 PM50 °FLow clouds.5 mph87%29.79 "Hg19 mi
1:00 PM47 °FRain showers. Overcast.5 mph96%29.78 "Hg5 mi
12:00 PM50 °FLight rain. Overcast.6 mph88%29.73 "Hg12 mi
11:00 AM47 °FLight rain. Low clouds.5 mph94%29.73 "Hg14 mi
10:00 AM46 °FRain. Overcast.6 mph92%29.70 "Hg5 mi
9:00 AM47 °FRain showers. Low clouds.6 mph100%29.69 "Hg1 mi
8:00 AM49 °FLight rain. Overcast.12 mph87%29.63 "Hg11 mi
Weather by CustomWeather, © 2015

See weather overviewHow to use our weather pages